Parkersburg, WV

11:51 PM EDT on May 29, 2017 (GMT -0400)
Wood County Wilson

Weather History for KPKB - April, 2014

Change the Weather History Date:

Saturday, April 12, 2014

  Actual Average Record
Temperature  
Mean Temperature 54 °F 53 °F  
Max Temperature 71 °F 65 °F 88 °F (1930)
Min Temperature 39 °F 41 °F 25 °F (1892)
Degree Days  
Heating Degree Days 12 12  
Month to date heating degree days 124 170  
Since 1 July heating degree days 4472 4631  
Cooling Degree Days 0 1  
Month to date cooling degree days 0 2  
Year to date cooling degree days 0 5  
Growing Degree Days 4 (Base 50)    
Moisture  
Dew Point 42 °F    
Average Humidity 64    
Maximum Humidity 100    
Minimum Humidity 27    
Precipitation  
Precipitation 0.00 in 0.11 in 0.96 in (2004)
Month to date precipitation 1.58 1.31  
Year to date precipitation 6.99 10.69  
Sea Level Pressure  
Sea Level Pressure 30.16 in    
Wind  
Wind Speed 6 mph (SSW)    
Max Wind Speed 14 mph    
Max Gust Speed -    
Visibility 5 miles    
Events Fog    
T = Trace of Precipitation, MM = Missing Value Source: NWS Daily Summary

Daily Weather History Graph

Daily Weather History Graph

Search for Another Location

Airport or City:

Trip Planner

Search our weather history database for the weather conditions in past years. The results will help you decide how hot, cold, wet, or windy it might be!

Date:

Astronomy

Apr. 12, 2014 Rise Set
Actual Time 6:53 AM EDT 8:00 PM EDT
Civil Twilight 6:25 AM EDT 8:28 PM EDT
Nautical Twilight 5:52 AM EDT 9:01 PM EDT
Astronomical Twilight 5:18 AM EDT 9:35 PM EDT
Moon 5:38 PM EDT (4/12) 5:18 AM EDT (4/12)
Length of Visible Light 14h 02m
Length of Day
13h 07m
Waxing Gibbous, 93% of the Moon is Illuminated
Apr 12
Waxing Gibbous
Apr 15
Full
Apr 22
Last Quarter
Apr 29
New
May 6
First Quarter

Hourly Weather History & Observations

Time (EDT) Temp. Windchill Dew Point Humidity Pressure Visibility Wind Dir Wind Speed Gust Speed Precip Events Conditions
12:53 AM 53.1 °F - 43.0 °F 69% 30.14 in 10.0 mi Calm Calm - N/A   Partly Cloudy
1:53 AM 51.1 °F - 46.9 °F 86% 30.15 in 10.0 mi Calm Calm - N/A   Clear
2:53 AM 46.9 °F - 44.1 °F 90% 30.15 in 5.0 mi Calm Calm - N/A   Clear
3:53 AM 45.0 °F - 43.0 °F 93% 30.16 in 3.0 mi Calm Calm - N/A   Clear
4:24 AM 44.1 °F - 42.1 °F 93% 30.16 in 2.0 mi Calm Calm - N/A   Clear
4:34 AM 45.0 °F - 43.0 °F 93% 30.17 in 3.0 mi Calm Calm - N/A   Clear
4:50 AM 42.8 °F 40.1 °F 42.8 °F 100% 30.17 in 2.5 mi West 4.6 mph - N/A   Partly Cloudy
4:53 AM 42.1 °F - 41.0 °F 96% 30.17 in 2.5 mi Calm Calm - N/A   Partly Cloudy
5:05 AM 45.0 °F - 44.1 °F 97% 30.17 in 3.0 mi Calm Calm - N/A   Clear
5:08 AM 44.1 °F - 43.0 °F 96% 30.17 in 1.8 mi Calm Calm - N/A   Clear
5:20 AM 42.1 °F - 42.1 °F 100% 30.18 in 3.0 mi Calm Calm - N/A   Clear
5:34 AM 42.1 °F - 41.0 °F 96% 30.18 in 2.5 mi Calm Calm - N/A   Clear
5:45 AM 42.1 °F - 39.9 °F 92% 30.18 in 1.8 mi Calm Calm - N/A   Partly Cloudy
5:48 AM 42.8 °F - 39.2 °F 87% 30.18 in 0.8 mi Calm Calm - N/A   Mist
5:53 AM 43.0 °F - 41.0 °F 93% 30.18 in 0.2 mi Calm Calm - N/A Fog Fog
6:01 AM 43.0 °F - 41.0 °F 93% 30.19 in 0.2 mi Calm Calm - N/A Fog Fog
6:34 AM 39.9 °F - 39.0 °F 97% 30.20 in 0.5 mi Calm Calm - N/A Fog Fog
6:46 AM 41.0 °F - 39.9 °F 96% 30.21 in 1.2 mi Calm Calm - N/A   Scattered Clouds
6:53 AM 41.0 °F - 39.9 °F 96% 30.21 in 0.8 mi Calm Calm - N/A   Mist
6:58 AM 39.9 °F - 39.0 °F 97% 30.21 in 0.2 mi Calm Calm - N/A Fog Fog
7:11 AM 39.9 °F - 39.0 °F 97% 30.21 in 1.0 mi Calm Calm - N/A   Mist
7:14 AM 39.9 °F - 37.9 °F 93% 30.21 in 2.0 mi Calm Calm - N/A   Partly Cloudy
7:23 AM 39.9 °F - 37.9 °F 93% 30.22 in 0.2 mi Calm Calm - N/A Fog Fog
7:53 AM 42.1 °F - 42.1 °F 100% 30.23 in 0.2 mi Calm Calm - N/A Fog Fog
8:03 AM 42.1 °F - 42.1 °F 100% 30.23 in 0.2 mi Calm Calm - N/A Fog Fog
8:42 AM 45.0 °F - 45.0 °F 100% 30.24 in 0.2 mi Calm Calm - N/A Fog Fog
8:53 AM 46.9 °F - 46.0 °F 97% 30.24 in 0.8 mi Calm Calm - N/A   Mist
8:55 AM 46.9 °F - 46.0 °F 97% 30.24 in 2.0 mi Calm Calm - N/A   Mostly Cloudy
9:02 AM 48.0 °F - 46.9 °F 96% 30.24 in 4.0 mi Calm Calm - N/A   Clear
9:12 AM 50.0 °F - 48.9 °F 96% 30.24 in 10.0 mi Calm Calm - N/A   Clear
9:53 AM 57.9 °F - 50.0 °F 75% 30.24 in 10.0 mi SE 3.5 mph - N/A   Clear
10:53 AM 64.9 °F - 37.9 °F 37% 30.23 in 10.0 mi ESE 10.4 mph - N/A   Clear
11:53 AM 68.0 °F - 34.0 °F 28% 30.20 in 10.0 mi SE 11.5 mph - N/A   Clear
12:53 PM 71.1 °F - 37.9 °F 30% 30.17 in 10.0 mi SSE 10.4 mph - N/A   Clear
1:53 PM - - - N/A% 30.14 in 10.0 mi SSW 9.2 mph - N/A   Clear
2:53 PM - - - N/A% 30.11 in 10.0 mi SSW 11.5 mph - N/A   Clear
3:53 PM - - - N/A% 30.07 in 10.0 mi WSW 11.5 mph - N/A   Clear
4:53 PM - - - N/A% 30.05 in 10.0 mi WSW 11.5 mph - N/A   Clear
5:53 PM - - - N/A% 30.04 in 10.0 mi SW 13.8 mph - N/A   Clear
6:53 PM - - - N/A% 30.02 in 10.0 mi SW 10.4 mph - N/A   Clear
7:53 PM - - - N/A% 30.01 in 10.0 mi WSW 8.1 mph - N/A   Clear
8:53 PM - - - N/A% 30.00 in 10.0 mi SSW 5.8 mph - N/A   Clear
9:53 PM - - - N/A% 29.99 in 10.0 mi South 3.5 mph - N/A   Clear
10:53 PM - - - N/A% 29.97 in 10.0 mi South 8.1 mph - N/A   Clear
11:53 PM - - - N/A% 29.96 in - North - - N/A   Unknown